contact:dominique.lefevre@mio.osupytheas.fr, maurice.libes@osupytheas.fr, didier.mallarino@osupytheas.fr
Project:EMSO http://www.emso-fr.org/EMSO-France
Depth: 2436.0 m
Title:EMSO Ligure Ouest : Data MII capteur CSTAR
DateTime,Latitude,Longitude,Instrument_Serial,Reference_Counts,Signal_Counts,Corrected_Signal_raw_counts,Calculated_Beam_c_inverse_meters,Internal_thermistor_counts
DateTime,Latitude,Longitude,Instrument_Serial,Reference_Counts,Signal_Counts,Corrected_Signal_raw_counts,Calculated_Beam_c_inverse_meters,Internal_thermistor_counts
2020-02-12T00:00:03,42.805,6.029,CST-1368DR,6795,9425,15077,0.141,551
2020-02-12T00:03:05,42.805,6.029,CST-1368DR,6795,9390,15021,0.155,551
2020-02-12T00:06:06,42.805,6.029,CST-1368DR,6794,9306,14889,0.191,550
2020-02-12T00:09:08,42.805,6.029,CST-1368DR,6796,9474,15153,0.120,551
2020-02-12T00:12:10,42.805,6.029,CST-1368DR,6794,9343,14948,0.175,551
2020-02-12T00:15:11,42.805,6.029,CST-1368DR,6795,9385,15013,0.158,551
2020-02-12T00:18:13,42.805,6.029,CST-1368DR,6795,9401,15038,0.151,550
2020-02-12T00:21:14,42.805,6.029,CST-1368DR,6796,9459,15130,0.126,551
2020-02-12T00:24:16,42.805,6.029,CST-1368DR,6795,9363,14978,0.167,551
2020-02-12T00:27:18,42.805,6.029,CST-1368DR,6795,9411,15054,0.147,551
2020-02-12T00:30:19,42.805,6.029,CST-1368DR,6794,9304,14885,0.192,551
2020-02-12T00:33:21,42.805,6.029,CST-1368DR,6796,9519,15225,0.101,551
2020-02-12T00:36:23,42.805,6.029,CST-1368DR,6795,9400,15037,0.151,551
2020-02-12T00:39:24,42.805,6.029,CST-1368DR,6795,9383,15009,0.159,551
2020-02-12T00:42:26,42.805,6.029,CST-1368DR,6795,9429,15083,0.139,551
2020-02-12T00:45:28,42.805,6.029,CST-1368DR,6796,9515,15219,0.103,551
2020-02-12T00:48:29,42.805,6.029,CST-1368DR,6796,9519,15225,0.101,551
2020-02-12T00:51:31,42.805,6.029,CST-1368DR,6796,9470,15147,0.122,551
2020-02-12T00:54:32,42.805,6.029,CST-1368DR,6795,9443,15106,0.133,551
2020-02-12T00:57:34,42.805,6.029,CST-1368DR,6794,9301,14881,0.193,551
2020-02-12T01:00:36,42.805,6.029,CST-1368DR,6794,9364,14981,0.166,551
2020-02-12T01:03:37,42.805,6.029,CST-1368DR,6795,9453,15121,0.129,551
2020-02-12T01:06:39,42.805,6.029,CST-1368DR,6794,9311,14897,0.189,551
2020-02-12T01:09:41,42.805,6.029,CST-1368DR,6795,9427,15080,0.140,551
2020-02-12T01:12:42,42.805,6.029,CST-1368DR,6794,9349,14957,0.172,551
2020-02-12T01:15:44,42.805,6.029,CST-1368DR,6795,9417,15064,0.144,551
2020-02-12T01:18:46,42.805,6.029,CST-1368DR,6794,9375,15000,0.161,551
2020-02-12T01:21:47,42.805,6.029,CST-1368DR,6794,9378,15004,0.160,551
2020-02-12T01:24:49,42.805,6.029,CST-1368DR,6795,9416,15063,0.144,551
2020-02-12T01:27:51,42.805,6.029,CST-1368DR,6796,9514,15218,0.103,551
2020-02-12T01:30:53,42.805,6.029,CST-1368DR,6796,9495,15187,0.111,551
2020-02-12T01:33:55,42.805,6.029,CST-1368DR,6796,9483,15168,0.116,551
2020-02-12T01:36:56,42.805,6.029,CST-1368DR,6796,9473,15152,0.121,551
2020-02-12T01:39:58,42.805,6.029,CST-1368DR,6796,9476,15156,0.120,551
2020-02-12T01:42:59,42.805,6.029,CST-1368DR,6795,9477,15161,0.118,551
2020-02-12T01:46:01,42.805,6.029,CST-1368DR,6796,9510,15212,0.105,550
2020-02-12T01:49:03,42.805,6.029,CST-1368DR,6794,9328,14924,0.181,551
2020-02-12T01:52:04,42.805,6.029,CST-1368DR,6794,9345,14951,0.174,551
2020-02-12T01:55:06,42.805,6.029,CST-1368DR,6796,9477,15158,0.119,551
2020-02-12T01:58:08,42.805,6.029,CST-1368DR,6795,9452,15120,0.129,550
2020-02-12T02:01:09,42.805,6.029,CST-1368DR,6794,9364,14982,0.166,551
2020-02-12T02:04:11,42.805,6.029,CST-1368DR,6795,9465,15140,0.124,551
2020-02-12T02:07:12,42.805,6.029,CST-1368DR,6795,9448,15114,0.131,551
2020-02-12T02:10:14,42.805,6.029,CST-1368DR,6794,9369,14990,0.164,551
2020-02-12T02:13:16,42.805,6.029,CST-1368DR,6795,9472,15152,0.121,551
2020-02-12T02:16:17,42.805,6.029,CST-1368DR,6795,9402,15041,0.150,551
2020-02-12T02:19:19,42.805,6.029,CST-1368DR,6795,9407,15048,0.148,551
2020-02-12T02:22:21,42.805,6.029,CST-1368DR,6795,9462,15136,0.125,551
2020-02-12T02:25:22,42.805,6.029,CST-1368DR,6794,9387,15018,0.156,550
2020-02-12T02:28:24,42.805,6.029,CST-1368DR,6794,9382,15011,0.158,551
2020-02-12T02:31:26,42.805,6.029,CST-1368DR,6794,9392,15026,0.154,551
2020-02-12T02:34:28,42.805,6.029,CST-1368DR,6795,9464,15140,0.124,551
2020-02-12T02:37:29,42.805,6.029,CST-1368DR,6795,9469,15148,0.122,551
2020-02-12T02:40:31,42.805,6.029,CST-1368DR,6795,9422,15072,0.142,550
2020-02-12T02:43:32,42.805,6.029,CST-1368DR,6794,9406,15049,0.148,551
2020-02-12T02:46:34,42.805,6.029,CST-1368DR,6794,9373,14996,0.162,551
2020-02-12T02:49:36,42.805,6.029,CST-1368DR,6795,9451,15118,0.130,551
2020-02-12T02:52:37,42.805,6.029,CST-1368DR,6794,9381,15009,0.159,550
2020-02-12T02:55:39,42.805,6.029,CST-1368DR,6794,9401,15041,0.150,551
2020-02-12T02:58:41,42.805,6.029,CST-1368DR,6795,9460,15133,0.126,551
2020-02-12T03:01:42,42.805,6.029,CST-1368DR,6795,9456,15126,0.128,551
2020-02-12T03:04:44,42.805,6.029,CST-1368DR,6795,9429,15083,0.139,551
2020-02-12T03:07:45,42.805,6.029,CST-1368DR,6794,9370,14992,0.163,551
2020-02-12T03:10:47,42.805,6.029,CST-1368DR,6795,9472,15153,0.120,551
2020-02-12T03:13:49,42.805,6.029,CST-1368DR,6795,9434,15091,0.137,551
2020-02-12T03:16:50,42.805,6.029,CST-1368DR,6795,9420,15070,0.142,551
2020-02-12T03:19:52,42.805,6.029,CST-1368DR,6793,9253,14806,0.213,551
2020-02-12T03:22:54,42.805,6.029,CST-1368DR,6795,9471,15150,0.121,551
2020-02-12T03:25:55,42.805,6.029,CST-1368DR,6795,9519,15227,0.101,551
2020-02-12T03:28:57,42.805,6.029,CST-1368DR,6794,9412,15058,0.146,550
2020-02-12T03:31:58,42.805,6.029,CST-1368DR,6795,9518,15225,0.101,551
2020-02-12T03:35:00,42.805,6.029,CST-1368DR,6795,9448,15114,0.131,551
2020-02-12T03:38:02,42.805,6.029,CST-1368DR,6795,9476,15158,0.119,551
2020-02-12T03:41:03,42.805,6.029,CST-1368DR,6795,9462,15137,0.125,551
2020-02-12T03:44:05,42.805,6.029,CST-1368DR,6795,9459,15131,0.126,550
2020-02-12T03:47:07,42.805,6.029,CST-1368DR,6793,9344,14951,0.174,551
2020-02-12T03:50:08,42.805,6.029,CST-1368DR,6794,9398,15036,0.151,551
2020-02-12T03:53:10,42.805,6.029,CST-1368DR,6794,9386,15016,0.157,551
2020-02-12T03:56:11,42.805,6.029,CST-1368DR,6793,9361,14979,0.167,551
2020-02-12T03:59:13,42.805,6.029,CST-1368DR,6794,9379,15006,0.159,551
2020-02-12T04:02:15,42.805,6.029,CST-1368DR,6795,9449,15115,0.130,551
2020-02-12T04:05:16,42.805,6.029,CST-1368DR,6795,9519,15227,0.101,550
2020-02-12T04:08:18,42.805,6.029,CST-1368DR,6795,9465,15140,0.124,551
2020-02-12T04:11:20,42.805,6.029,CST-1368DR,6795,9465,15141,0.124,551
2020-02-12T04:14:21,42.805,6.029,CST-1368DR,6795,9518,15225,0.101,551
2020-02-12T04:17:23,42.805,6.029,CST-1368DR,6795,9518,15225,0.101,551
2020-02-12T04:20:25,42.805,6.029,CST-1368DR,6795,9516,15223,0.102,551
2020-02-12T04:23:26,42.805,6.029,CST-1368DR,6795,9518,15225,0.101,551
2020-02-12T04:26:28,42.805,6.029,CST-1368DR,6795,9519,15227,0.101,551
2020-02-12T04:29:30,42.805,6.029,CST-1368DR,6794,9445,15112,0.131,551
2020-02-12T04:32:31,42.805,6.029,CST-1368DR,6795,9514,15219,0.103,550
2020-02-12T04:35:33,42.805,6.029,CST-1368DR,6795,9509,15211,0.105,551
2020-02-12T04:38:34,42.805,6.029,CST-1368DR,6795,9513,15217,0.104,551
2020-02-12T04:41:36,42.805,6.029,CST-1368DR,6795,9514,15220,0.103,551
2020-02-12T04:44:38,42.805,6.029,CST-1368DR,6795,9517,15224,0.102,550
2020-02-12T04:47:40,42.805,6.029,CST-1368DR,6795,9510,15213,0.105,551
2020-02-12T04:50:41,42.805,6.029,CST-1368DR,6795,9506,15207,0.106,551
2020-02-12T04:53:43,42.805,6.029,CST-1368DR,6795,9515,15220,0.103,551
2020-02-12T04:56:44,42.805,6.029,CST-1368DR,6795,9517,15225,0.101,551
2020-02-12T04:59:46,42.805,6.029,CST-1368DR,6795,9517,15224,0.102,551
2020-02-12T05:02:48,42.805,6.029,CST-1368DR,6795,9516,15222,0.102,551
2020-02-12T05:05:49,42.805,6.029,CST-1368DR,6795,9510,15212,0.105,551
2020-02-12T05:08:51,42.805,6.029,CST-1368DR,6795,9518,15226,0.101,551
2020-02-12T05:11:53,42.805,6.029,CST-1368DR,6795,9517,15224,0.102,551
2020-02-12T05:14:54,42.805,6.029,CST-1368DR,6795,9506,15206,0.106,551
2020-02-12T05:17:56,42.805,6.029,CST-1368DR,6795,9513,15217,0.104,551
2020-02-12T05:20:58,42.805,6.029,CST-1368DR,6795,9515,15220,0.103,551
2020-02-12T05:23:59,42.805,6.029,CST-1368DR,6795,9517,15225,0.101,551
2020-02-12T05:27:01,42.805,6.029,CST-1368DR,6795,9515,15221,0.102,551
2020-02-12T05:30:03,42.805,6.029,CST-1368DR,6795,9509,15211,0.105,551
2020-02-12T05:33:04,42.805,6.029,CST-1368DR,6795,9513,15218,0.103,551
2020-02-12T05:36:06,42.805,6.029,CST-1368DR,6795,9510,15213,0.105,551
2020-02-12T05:39:08,42.805,6.029,CST-1368DR,6795,9516,15222,0.102,551
2020-02-12T05:42:09,42.805,6.029,CST-1368DR,6795,9513,15218,0.103,551
2020-02-12T05:45:11,42.805,6.029,CST-1368DR,6795,9507,15208,0.106,551
2020-02-12T05:48:13,42.805,6.029,CST-1368DR,6795,9516,15223,0.102,551
2020-02-12T05:51:14,42.805,6.029,CST-1368DR,6795,9516,15223,0.102,550
2020-02-12T05:54:16,42.805,6.029,CST-1368DR,6795,9514,15220,0.103,551
2020-02-12T05:57:18,42.805,6.029,CST-1368DR,6795,9512,15216,0.104,551
2020-02-12T06:00:19,42.805,6.029,CST-1368DR,6795,9507,15208,0.106,551
2020-02-12T06:03:21,42.805,6.029,CST-1368DR,6795,9513,15218,0.103,551
2020-02-12T06:06:22,42.805,6.029,CST-1368DR,6795,9516,15223,0.102,551
2020-02-12T06:09:24,42.805,6.029,CST-1368DR,6795,9505,15204,0.107,551
2020-02-12T06:12:26,42.805,6.029,CST-1368DR,6795,9505,15206,0.106,551
2020-02-12T06:15:27,42.805,6.029,CST-1368DR,6795,9512,15216,0.104,551
2020-02-12T06:18:29,42.805,6.029,CST-1368DR,6795,9516,15223,0.102,551
2020-02-12T06:21:31,42.805,6.029,CST-1368DR,6795,9506,15206,0.106,551
2020-02-12T06:24:32,42.805,6.029,CST-1368DR,6795,9515,15222,0.102,551
2020-02-12T06:27:34,42.805,6.029,CST-1368DR,6795,9517,15225,0.101,551
2020-02-12T06:30:35,42.805,6.029,CST-1368DR,6795,9513,15218,0.103,550
2020-02-12T06:33:37,42.805,6.029,CST-1368DR,6795,9509,15212,0.105,551
2020-02-12T06:36:39,42.805,6.029,CST-1368DR,6795,9516,15223,0.102,551
2020-02-12T06:39:41,42.805,6.029,CST-1368DR,6794,9508,15212,0.105,551
2020-02-12T06:42:42,42.805,6.029,CST-1368DR,6795,9512,15216,0.104,551
2020-02-12T06:45:44,42.805,6.029,CST-1368DR,6795,9509,15211,0.105,551
2020-02-12T06:48:45,42.805,6.029,CST-1368DR,6795,9517,15224,0.102,551
2020-02-12T06:51:47,42.805,6.029,CST-1368DR,6795,9512,15217,0.104,551
2020-02-12T06:54:49,42.805,6.029,CST-1368DR,6795,9516,15222,0.102,551
2020-02-12T06:57:50,42.805,6.029,CST-1368DR,6794,9515,15223,0.102,551
2020-02-12T07:00:53,42.805,6.029,CST-1368DR,6795,9513,15218,0.103,551
2020-02-12T07:03:54,42.805,6.029,CST-1368DR,6795,9511,15215,0.104,551
2020-02-12T07:06:56,42.805,6.029,CST-1368DR,6794,9512,15218,0.103,551
2020-02-12T07:09:58,42.805,6.029,CST-1368DR,6795,9513,15218,0.103,551
2020-02-12T07:12:59,42.805,6.029,CST-1368DR,6794,9517,15227,0.101,551
2020-02-12T07:16:01,42.805,6.029,CST-1368DR,6794,9509,15214,0.104,551
2020-02-12T07:19:02,42.805,6.029,CST-1368DR,6794,9508,15212,0.105,551
2020-02-12T07:22:04,42.805,6.029,CST-1368DR,6795,9516,15223,0.102,551
2020-02-12T07:25:06,42.805,6.029,CST-1368DR,6794,9510,15215,0.104,551
2020-02-12T07:28:07,42.805,6.029,CST-1368DR,6794,9512,15218,0.103,551
2020-02-12T07:31:09,42.805,6.029,CST-1368DR,6795,9516,15223,0.102,551
2020-02-12T07:34:11,42.805,6.029,CST-1368DR,6794,9515,15223,0.102,551
2020-02-12T07:37:12,42.805,6.029,CST-1368DR,6794,9506,15209,0.106,551
2020-02-12T07:40:14,42.805,6.029,CST-1368DR,6794,9510,15216,0.104,551
2020-02-12T07:43:16,42.805,6.029,CST-1368DR,6794,9508,15212,0.105,551
2020-02-12T07:46:18,42.805,6.029,CST-1368DR,6794,9504,15205,0.107,551
2020-02-12T07:49:19,42.805,6.029,CST-1368DR,6794,9516,15225,0.101,551
2020-02-12T07:52:21,42.805,6.029,CST-1368DR,6794,9508,15212,0.105,551
2020-02-12T07:55:22,42.805,6.029,CST-1368DR,6794,9518,15228,0.101,551
2020-02-12T07:58:24,42.805,6.029,CST-1368DR,6794,9515,15223,0.102,551
2020-02-12T08:01:26,42.805,6.029,CST-1368DR,6794,9513,15220,0.103,551
2020-02-12T08:04:27,42.805,6.029,CST-1368DR,6794,9513,15219,0.103,551
2020-02-12T08:07:29,42.805,6.029,CST-1368DR,6794,9514,15222,0.102,551
2020-02-12T08:10:31,42.805,6.029,CST-1368DR,6794,9516,15225,0.101,551
2020-02-12T08:13:32,42.805,6.029,CST-1368DR,6794,9510,15216,0.104,551
2020-02-12T08:16:34,42.805,6.029,CST-1368DR,6794,9511,15217,0.104,551
2020-02-12T08:19:36,42.805,6.029,CST-1368DR,6794,9505,15208,0.106,551
2020-02-12T08:22:38,42.805,6.029,CST-1368DR,6794,9508,15212,0.105,551
2020-02-12T08:25:39,42.805,6.029,CST-1368DR,6794,9512,15218,0.103,551
2020-02-12T08:28:41,42.805,6.029,CST-1368DR,6794,9512,15219,0.103,551
2020-02-12T08:31:43,42.805,6.029,CST-1368DR,6794,9496,15193,0.110,551
2020-02-12T08:34:44,42.805,6.029,CST-1368DR,6794,9514,15221,0.102,551
2020-02-12T08:37:46,42.805,6.029,CST-1368DR,6794,9515,15224,0.102,551
2020-02-12T08:40:48,42.805,6.029,CST-1368DR,6794,9503,15204,0.107,551
2020-02-12T08:43:49,42.805,6.029,CST-1368DR,6794,9488,15180,0.113,551
2020-02-12T08:46:51,42.805,6.029,CST-1368DR,6794,9505,15208,0.106,551
2020-02-12T08:49:52,42.805,6.029,CST-1368DR,6794,9485,15176,0.114,551
2020-02-12T08:52:54,42.805,6.029,CST-1368DR,6794,9505,15207,0.106,551
2020-02-12T08:55:56,42.805,6.029,CST-1368DR,6794,9516,15225,0.101,551
2020-02-12T08:58:57,42.805,6.029,CST-1368DR,6794,9512,15219,0.103,551
2020-02-12T09:01:59,42.805,6.029,CST-1368DR,6794,9511,15217,0.104,551
2020-02-12T09:05:01,42.805,6.029,CST-1368DR,6794,9487,15179,0.114,551
2020-02-12T09:08:02,42.805,6.029,CST-1368DR,6794,9517,15226,0.101,551
2020-02-12T09:11:04,42.805,6.029,CST-1368DR,6794,9510,15216,0.104,551
2020-02-12T09:14:06,42.805,6.029,CST-1368DR,6794,9495,15191,0.110,551
2020-02-12T09:17:07,42.805,6.029,CST-1368DR,6794,9508,15211,0.105,551
2020-02-12T09:20:09,42.805,6.029,CST-1368DR,6794,9516,15225,0.101,551
2020-02-12T09:23:11,42.805,6.029,CST-1368DR,6794,9479,15165,0.117,551
2020-02-12T09:26:12,42.805,6.029,CST-1368DR,6794,9485,15175,0.115,551
2020-02-12T09:29:14,42.805,6.029,CST-1368DR,6794,9513,15221,0.102,551
2020-02-12T09:32:16,42.805,6.029,CST-1368DR,6794,9482,15171,0.116,551
2020-02-12T09:35:17,42.805,6.029,CST-1368DR,6794,9516,15224,0.102,551
2020-02-12T09:38:19,42.805,6.029,CST-1368DR,6794,9514,15222,0.102,551
2020-02-12T09:41:21,42.805,6.029,CST-1368DR,6794,9515,15223,0.102,551
2020-02-12T09:44:22,42.805,6.029,CST-1368DR,6794,9503,15204,0.107,551
2020-02-12T09:47:24,42.805,6.029,CST-1368DR,6794,9507,15211,0.105,551
2020-02-12T09:50:25,42.805,6.029,CST-1368DR,6794,9504,15205,0.107,551
2020-02-12T09:53:27,42.805,6.029,CST-1368DR,6794,9487,15179,0.114,551
2020-02-12T09:56:29,42.805,6.029,CST-1368DR,6794,9480,15167,0.117,551
2020-02-12T09:59:30,42.805,6.029,CST-1368DR,6794,9496,15193,0.110,551
2020-02-12T10:02:32,42.805,6.029,CST-1368DR,6794,9502,15202,0.107,551
2020-02-12T10:05:34,42.805,6.029,CST-1368DR,6794,9488,15180,0.113,551
2020-02-12T10:08:35,42.805,6.029,CST-1368DR,6793,9478,15167,0.117,551
2020-02-12T10:11:37,42.805,6.029,CST-1368DR,6794,9484,15173,0.115,551
2020-02-12T10:14:38,42.805,6.029,CST-1368DR,6794,9504,15206,0.106,550
2020-02-12T10:17:40,42.805,6.029,CST-1368DR,6793,9484,15176,0.114,551
2020-02-12T10:20:42,42.805,6.029,CST-1368DR,6794,9503,15203,0.107,551
2020-02-12T10:23:43,42.805,6.029,CST-1368DR,6794,9489,15182,0.113,551
2020-02-12T10:26:45,42.805,6.029,CST-1368DR,6794,9516,15225,0.101,551
2020-02-12T10:29:47,42.805,6.029,CST-1368DR,6794,9488,15181,0.113,551
2020-02-12T10:32:48,42.805,6.029,CST-1368DR,6794,9502,15202,0.107,551
2020-02-12T10:35:50,42.805,6.029,CST-1368DR,6794,9504,15206,0.106,551
2020-02-12T10:38:51,42.805,6.029,CST-1368DR,6794,9497,15194,0.110,551
2020-02-12T10:41:53,42.805,6.029,CST-1368DR,6793,9482,15172,0.115,551
2020-02-12T10:44:55,42.805,6.029,CST-1368DR,6793,9484,15176,0.114,551
2020-02-12T10:47:56,42.805,6.029,CST-1368DR,6793,9443,15111,0.131,551
2020-02-12T10:50:58,42.805,6.029,CST-1368DR,6793,9487,15181,0.113,551
2020-02-12T10:54:00,42.805,6.029,CST-1368DR,6793,9485,15178,0.114,551
2020-02-12T10:57:01,42.805,6.029,CST-1368DR,6794,9488,15180,0.113,551
2020-02-12T11:00:03,42.805,6.029,CST-1368DR,6794,9514,15221,0.102,551
2020-02-12T11:03:04,42.805,6.029,CST-1368DR,6793,9485,15177,0.114,551
2020-02-12T11:06:06,42.805,6.029,CST-1368DR,6794,9504,15206,0.106,551
2020-02-12T11:09:08,42.805,6.029,CST-1368DR,6793,9477,15165,0.117,551
2020-02-12T11:12:09,42.805,6.029,CST-1368DR,6794,9504,15205,0.107,551
2020-02-12T11:15:11,42.805,6.029,CST-1368DR,6794,9512,15219,0.103,551
2020-02-12T11:18:13,42.805,6.029,CST-1368DR,6794,9497,15195,0.109,551
2020-02-12T11:21:14,42.805,6.029,CST-1368DR,6793,9478,15166,0.117,551
2020-02-12T11:24:16,42.805,6.029,CST-1368DR,6793,9502,15204,0.107,551
2020-02-12T11:27:18,42.805,6.029,CST-1368DR,6793,9489,15184,0.112,551
2020-02-12T11:30:19,42.805,6.029,CST-1368DR,6794,9513,15220,0.103,551
2020-02-12T11:33:21,42.805,6.029,CST-1368DR,6793,9513,15223,0.102,551
2020-02-12T11:36:23,42.805,6.029,CST-1368DR,6793,9503,15206,0.106,551
2020-02-12T11:39:24,42.805,6.029,CST-1368DR,6793,9483,15175,0.115,551
2020-02-12T11:42:26,42.805,6.029,CST-1368DR,6793,9504,15207,0.106,551
2020-02-12T11:45:28,42.805,6.029,CST-1368DR,6793,9494,15192,0.110,551
2020-02-12T11:48:29,42.805,6.029,CST-1368DR,6793,9493,15190,0.111,551
2020-02-12T11:51:31,42.805,6.029,CST-1368DR,6793,9500,15202,0.107,551
2020-02-12T11:54:32,42.805,6.029,CST-1368DR,6793,9492,15188,0.111,551
2020-02-12T11:57:34,42.805,6.029,CST-1368DR,6793,9481,15171,0.116,551
2020-02-12T12:00:36,42.805,6.029,CST-1368DR,6793,9487,15181,0.113,551
2020-02-12T12:03:37,42.805,6.029,CST-1368DR,6793,9479,15167,0.117,551
2020-02-12T12:06:39,42.805,6.029,CST-1368DR,6793,9493,15189,0.111,551
2020-02-12T12:09:41,42.805,6.029,CST-1368DR,6793,9478,15167,0.117,551
2020-02-12T12:12:42,42.805,6.029,CST-1368DR,6793,9483,15175,0.115,551
2020-02-12T12:15:44,42.805,6.029,CST-1368DR,6793,9479,15167,0.117,551
2020-02-12T12:18:45,42.805,6.029,CST-1368DR,6793,9477,15164,0.117,551
2020-02-12T12:21:47,42.805,6.029,CST-1368DR,6793,9491,15186,0.112,551
2020-02-12T12:24:49,42.805,6.029,CST-1368DR,6793,9509,15215,0.104,551
2020-02-12T12:27:50,42.805,6.029,CST-1368DR,6793,9484,15176,0.114,551
2020-02-12T12:30:52,42.805,6.029,CST-1368DR,6793,9479,15167,0.117,551
2020-02-12T12:33:54,42.805,6.029,CST-1368DR,6793,9494,15192,0.110,551
2020-02-12T12:36:56,42.805,6.029,CST-1368DR,6793,9489,15183,0.112,551
2020-02-12T12:39:57,42.805,6.029,CST-1368DR,6793,9511,15218,0.103,551
2020-02-12T12:42:59,42.805,6.029,CST-1368DR,6793,9515,15225,0.101,551
2020-02-12T12:46:01,42.805,6.029,CST-1368DR,6793,9516,15226,0.101,551
2020-02-12T12:49:02,42.805,6.029,CST-1368DR,6793,9517,15228,0.101,551
2020-02-12T12:52:04,42.805,6.029,CST-1368DR,6793,9515,15225,0.101,551
2020-02-12T12:55:05,42.805,6.029,CST-1368DR,6793,9512,15220,0.103,550
2020-02-12T12:58:07,42.805,6.029,CST-1368DR,6793,9511,15218,0.103,551
2020-02-12T13:01:09,42.805,6.029,CST-1368DR,6793,9483,15175,0.115,551
2020-02-12T13:04:11,42.805,6.029,CST-1368DR,6793,9494,15191,0.110,551
2020-02-12T13:07:12,42.805,6.029,CST-1368DR,6793,9496,15195,0.109,551
2020-02-12T13:10:14,42.805,6.029,CST-1368DR,6793,9485,15177,0.114,551
2020-02-12T13:13:16,42.805,6.029,CST-1368DR,6793,9469,15151,0.121,551
2020-02-12T13:16:17,42.805,6.029,CST-1368DR,6793,9486,15179,0.114,551
2020-02-12T13:19:19,42.805,6.029,CST-1368DR,6793,9512,15221,0.102,551
2020-02-12T13:22:21,42.805,6.029,CST-1368DR,6793,9511,15219,0.103,551
2020-02-12T13:25:22,42.805,6.029,CST-1368DR,6793,9476,15163,0.118,551
2020-02-12T13:28:24,42.805,6.029,CST-1368DR,6793,9507,15213,0.105,551
2020-02-12T13:31:26,42.805,6.029,CST-1368DR,6793,9502,15204,0.107,551
2020-02-12T13:34:27,42.805,6.029,CST-1368DR,6793,9492,15188,0.111,551
2020-02-12T13:37:29,42.805,6.029,CST-1368DR,6793,9511,15219,0.103,551
2020-02-12T13:40:31,42.805,6.029,CST-1368DR,6793,9502,15204,0.107,551
2020-02-12T13:43:33,42.805,6.029,CST-1368DR,6793,9503,15205,0.107,550
2020-02-12T13:46:34,42.805,6.029,CST-1368DR,6793,9505,15209,0.106,551
2020-02-12T13:49:36,42.805,6.029,CST-1368DR,6793,9480,15169,0.116,551
2020-02-12T13:52:37,42.805,6.029,CST-1368DR,6793,9490,15186,0.112,551
2020-02-12T13:55:39,42.805,6.029,CST-1368DR,6793,9483,15174,0.115,551
2020-02-12T13:58:41,42.805,6.029,CST-1368DR,6793,9477,15165,0.117,551
2020-02-12T14:01:42,42.805,6.029,CST-1368DR,6793,9487,15180,0.113,551
2020-02-12T14:04:44,42.805,6.029,CST-1368DR,6793,9484,15175,0.115,551
2020-02-12T14:07:46,42.805,6.029,CST-1368DR,6793,9508,15213,0.105,551
2020-02-12T14:10:47,42.805,6.029,CST-1368DR,6793,9495,15193,0.110,551
2020-02-12T14:13:49,42.805,6.029,CST-1368DR,6793,9477,15165,0.117,551
2020-02-12T14:16:50,42.805,6.029,CST-1368DR,6793,9507,15213,0.105,551
2020-02-12T14:19:52,42.805,6.029,CST-1368DR,6793,9496,15194,0.110,551
2020-02-12T14:22:54,42.805,6.029,CST-1368DR,6793,9477,15164,0.117,551
2020-02-12T14:30:06,42.805,6.029,CST-1368DR,6793,9482,15173,0.115,551
2020-02-12T14:33:08,42.805,6.029,CST-1368DR,6793,9486,15178,0.114,551
2020-02-12T14:36:10,42.805,6.029,CST-1368DR,6793,9504,15207,0.106,551
2020-02-12T14:39:11,42.805,6.029,CST-1368DR,6793,9476,15163,0.118,551
2020-02-12T14:42:13,42.805,6.029,CST-1368DR,6793,9479,15167,0.117,551
2020-02-12T14:45:15,42.805,6.029,CST-1368DR,6793,9479,15167,0.117,551
2020-02-12T14:48:16,42.805,6.029,CST-1368DR,6793,9512,15221,0.102,551
2020-02-12T14:51:18,42.805,6.029,CST-1368DR,6793,9477,15165,0.117,551
2020-02-12T14:54:19,42.805,6.029,CST-1368DR,6793,9513,15223,0.102,551
2020-02-12T14:57:21,42.805,6.029,CST-1368DR,6793,9498,15198,0.109,551
2020-02-12T15:00:23,42.805,6.029,CST-1368DR,6793,9488,15182,0.113,551
2020-02-12T15:03:24,42.805,6.029,CST-1368DR,6792,9472,15158,0.119,551
2020-02-12T15:06:26,42.805,6.029,CST-1368DR,6793,9489,15184,0.112,551
2020-02-12T15:09:28,42.805,6.029,CST-1368DR,6793,9490,15185,0.112,551
2020-02-12T15:12:29,42.805,6.029,CST-1368DR,6793,9485,15177,0.114,551
2020-02-12T15:15:31,42.805,6.029,CST-1368DR,6793,9489,15183,0.112,551
2020-02-12T15:18:32,42.805,6.029,CST-1368DR,6793,9490,15185,0.112,551
2020-02-12T15:21:34,42.805,6.029,CST-1368DR,6793,9495,15194,0.110,551
2020-02-12T15:24:36,42.805,6.029,CST-1368DR,6792,9471,15156,0.120,551
2020-02-12T15:27:37,42.805,6.029,CST-1368DR,6792,9475,15164,0.117,551
2020-02-12T15:30:39,42.805,6.029,CST-1368DR,6792,9475,15163,0.118,551
2020-02-12T15:33:41,42.805,6.029,CST-1368DR,6792,9475,15164,0.117,551
2020-02-12T15:36:42,42.805,6.029,CST-1368DR,6792,9471,15158,0.119,551
2020-02-12T15:39:44,42.805,6.029,CST-1368DR,6792,9468,15153,0.120,551
2020-02-12T15:42:45,42.805,6.029,CST-1368DR,6792,9478,15168,0.116,551
2020-02-12T15:45:47,42.805,6.029,CST-1368DR,6792,9487,15183,0.112,551
2020-02-12T15:48:49,42.805,6.029,CST-1368DR,6792,9506,15214,0.104,551
2020-02-12T15:51:50,42.805,6.029,CST-1368DR,6792,9476,15164,0.117,551
2020-02-12T15:54:52,42.805,6.029,CST-1368DR,6792,9475,15163,0.118,551
2020-02-12T15:57:53,42.805,6.029,CST-1368DR,6792,9476,15165,0.117,551
2020-02-12T16:00:56,42.805,6.029,CST-1368DR,6792,9482,15174,0.115,551
2020-02-12T16:03:57,42.805,6.029,CST-1368DR,6792,9486,15182,0.113,551
2020-02-12T16:06:59,42.805,6.029,CST-1368DR,6792,9469,15154,0.120,551
2020-02-12T16:10:00,42.805,6.029,CST-1368DR,6792,9477,15166,0.117,551
2020-02-12T16:13:02,42.805,6.029,CST-1368DR,6792,9471,15156,0.120,551
2020-02-12T16:16:04,42.805,6.029,CST-1368DR,6792,9472,15159,0.119,551
2020-02-12T16:19:05,42.805,6.029,CST-1368DR,6792,9471,15157,0.119,551
2020-02-12T16:22:07,42.805,6.029,CST-1368DR,6792,9475,15163,0.118,551
2020-02-12T16:25:09,42.805,6.029,CST-1368DR,6792,9468,15153,0.120,551
2020-02-12T16:28:10,42.805,6.029,CST-1368DR,6792,9472,15158,0.119,551
2020-02-12T16:31:12,42.805,6.029,CST-1368DR,6792,9469,15154,0.120,551
2020-02-12T16:34:14,42.805,6.029,CST-1368DR,6792,9469,15154,0.120,551
2020-02-12T16:37:16,42.805,6.029,CST-1368DR,6792,9468,15152,0.121,551
2020-02-12T16:40:17,42.805,6.029,CST-1368DR,6792,9482,15174,0.115,551
2020-02-12T16:43:19,42.805,6.029,CST-1368DR,6792,9470,15156,0.120,551
2020-02-12T16:46:21,42.805,6.029,CST-1368DR,6792,9482,15175,0.115,551
2020-02-12T16:49:22,42.805,6.029,CST-1368DR,6792,9472,15159,0.119,551
2020-02-12T16:52:24,42.805,6.029,CST-1368DR,6792,9485,15180,0.113,551
2020-02-12T16:55:26,42.805,6.029,CST-1368DR,6792,9471,15157,0.119,551